JCSAT-2A

Last updated on Aug. 8, 2020, 5:32 a.m. UTC

1 27399U 02015A   20220.75301120 -.00000209  00000-0  00000+0 0  9994
2 27399   3.0218  84.9214 0005681  22.8741 203.2826  1.00415967 67164
UTC
Height (km)
Latitude
Longitude
Inclination
Orbital Period
UTC large
Height (km)
Speed (km/s)
/
Latitude / Longitude
Inclination (degrees)
Orbital Period (minutes)
Azimuth
Elevation
Range (km)
Doppler Factor
iOS Compass Heading
iOS Angle

Next 30 passes for location: Hong Kong

Rise time Rise Azimuth (degrees) Set time Set Azimuth (degrees) Duration Max altitude (degrees)

No matching passes for this satellites